Home   Weather   Greven   Past weeks

Flag for Germany Past Weather in Greven, North Rhine-Westphalia, Germany — Yesterday and Last 2 Weeks

Now
41 °F

Passing clouds.


Feels Like: 38 °F
Forecast: 34 / 61 °F
Wind: 5 mph from East

Location: Muenster / Osnabrueck

Current Time: Apr 30, 2017 at 1:37:08 am

Latest Report: Apr 30, 2017 at 1:20 am


Visibility: N/A

Pressure: 30.04 "Hg

Humidity: 66%

Dew Point: 30 °F

Location of GrevenLocation

Past Weather in Greven — Graph

°F

Greven Temperature Yesterday

Maximum temperature yesterday: 55 °F (at 4:50 pm)
Minimum temperature yesterday: 37 °F (at 12:20 am)
Average temperature yesterday: 45 °F

High & Low Weather Summary for the Past Weeks

 TemperatureHumidityPressure
High57 °F (Apr 24, 1:50 pm)100% (Apr 18, 3:20 am)30.63 "Hg (Apr 18, 3:20 am)
Low27 °F (Apr 20, 4:20 am)30% (Apr 20, 4:50 pm)29.65 "Hg (Apr 25, 3:20 am)
Average44 °F69%30.12 "Hg
* Reported Apr 15 12:20 am — Apr 30 12:20 am, Greven, Weather by CustomWeather, © 2017

Note: Actual official high and low records may vary slightly from our data, if they occured in-between our weather recording intervals... More about our weather records

Advertising

Greven Weather History for the Previous 24 Hours

Scroll right to see more
 ConditionsComfort  
Time TempWeatherWind HumidityBarometerVisibility
12:20 am
Sun, Apr 30
43 °FPassing clouds.3 mph66%30.07 "HgN/A
11:50 pm
Sat, Apr 29
41 °FPassing clouds.3 mph70%30.07 "HgN/A
11:20 pm41 °FClear.2 mph70%30.07 "Hg10 mi
10:50 pm45 °FClear.2 mph61%30.07 "Hg10 mi
10:20 pm45 °FClear.2 mph61%30.07 "Hg10 mi
9:50 pm46 °FPassing clouds.3 mph57%30.07 "HgN/A
9:20 pm46 °FPassing clouds.3 mph57%30.07 "HgN/A
8:50 pm48 °FClear.3 mph54%30.04 "Hg10 mi
8:20 pm52 °FSunny.2 mph47%30.04 "Hg10 mi
7:50 pm54 °FPassing clouds.3 mph41%30.04 "HgN/A
7:20 pm54 °FSunny.3 mph41%30.04 "Hg10 mi
6:50 pm54 °FSunny.3 mph44%30.04 "Hg10 mi
6:20 pm54 °FPassing clouds.7 mph44%30.04 "HgN/A
5:50 pm55 °FSunny.3 mph41%30.07 "Hg10 mi
5:20 pm54 °FSunny.2 mph44%30.07 "Hg10 mi
4:50 pm55 °FSunny.6 mph41%30.07 "Hg10 mi
4:20 pm54 °FPartly sunny.9 mph44%30.07 "HgN/A
3:50 pm54 °FPassing clouds.6 mph41%30.07 "HgN/A
3:20 pm52 °FPassing clouds.7 mph47%30.07 "HgN/A
2:50 pm52 °FPartly sunny.9 mph44%30.07 "HgN/A
2:20 pm52 °FSunny.3 mph47%30.07 "Hg10 mi
1:50 pm50 °FPartly sunny.7 mph50%30.07 "HgN/A
1:20 pm50 °FPartly sunny.7 mph50%30.07 "HgN/A
12:50 pm50 °FScattered clouds.5 mph47%30.07 "HgN/A
12:20 pm50 °FScattered clouds.9 mph47%30.07 "HgN/A
11:50 am50 °FScattered clouds.7 mph50%30.07 "HgN/A
11:20 am46 °FScattered clouds.8 mph62%30.07 "HgN/A
10:50 am45 °FPartly sunny.10 mph71%30.07 "HgN/A
10:20 am46 °FBroken clouds.8 mph66%30.07 "HgN/A
9:50 am46 °FLight rain. Broken clouds.7 mph66%30.07 "HgN/A
9:20 am45 °FLight rain. Partly sunny.6 mph76%30.07 "HgN/A
8:50 am43 °FLight rain. Broken clouds.5 mph81%30.07 "HgN/A
8:20 am41 °FPartly sunny.6 mph81%30.04 "HgN/A
7:50 am41 °FBroken clouds.5 mph81%30.04 "HgN/A
7:20 am39 °FPartly sunny.3 mph87%30.04 "HgN/A
6:50 am39 °FPartly sunny.3 mph87%30.04 "HgN/A
6:20 am39 °FPartly sunny.3 mph87%30.04 "HgN/A
5:50 am39 °FPassing clouds.5 mph87%30.04 "HgN/A
5:20 am37 °FPassing clouds.2 mph87%30.04 "HgN/A
4:50 am37 °FClear.2 mph87%30.04 "Hg10 mi
4:20 am39 °FClear.3 mph87%30.04 "Hg10 mi
3:50 am39 °FClear.3 mph87%30.01 "Hg10 mi
3:20 am39 °FClear.3 mph87%30.01 "Hg10 mi
2:50 am37 °FClear.3 mph87%30.01 "Hg10 mi
2:20 am37 °FClear.3 mph87%30.01 "Hg10 mi
1:50 am37 °FPassing clouds.1 mph93%30.01 "HgN/A
1:20 am37 °FPassing clouds.1 mph87%30.01 "HgN/A
Weather by CustomWeather, © 2017

See weather overviewHow to use our weather pages